Flag for U.S.A. Weather past 2 weeks in Santa Rosa, California, U.S.A.

Now
62 °F

Overcast.


Feels Like: 62 °F
Forecast: 58 / 73 °F
Wind: 5 mph from South

Location: Santa Rosa Sonoma County Airport

Current Time: Sep 20, 2014 at 10:03:09 PM

Latest Report: Sep 20, 2014 at 8:53 PM


Visibility: 10 mi

Pressure: 29.91 "Hg

Humidity: 86%

Dew point: 58 °F

Location of Santa RosaLocation

Historic Weather in Santa Rosa — Graph

°F

Santa Rosa temperature yesterday

Maximum temperature yesterday: 79 °F (at 2:53 PM)
Minimum temperature yesterday: 57 °F (at 4:00 AM)
Average temperature yesterday: 64 °F

Past Weeks' High & Low Weather Summary

 TemperatureHumidityPressure
High95 °F (Sep 10, 3:53 PM)100% (Sep 10, 4:53 AM)29.97 "Hg (Sep 10, 4:53 AM)
Low49 °F (Sep 10, 4:53 AM)17% (Sep 11, 2:53 PM)29.71 "Hg (Sep 17, 3:53 PM)
Average64 °F75%29.84 "Hg
* Reported Sep 5 8:53 PM — Sep 20 8:53 PM, Santa Rosa, Weather by CustomWeather, © 2014

Note: Actual official high and low records may vary slightly from our data, if they occured in-between our weather recording intervals... More about our weather records

Advertising

Santa Rosa weather history for previous 24 hours

 ConditionsComfort  
Time TempWeatherWind HumidityBarometerVisibility
8:53 PM
Sep 20
62 °FOvercast.5 mph86%29.91 "Hg10 mi
7:53 PM62 °FScattered clouds.6 mph86%29.89 "Hg10 mi
6:53 PM65 °FScattered clouds.9 mph78%29.87 "Hg10 mi
5:53 PM69 °FPassing clouds.10 mph68%29.85 "Hg10 mi
4:53 PM74 °FPassing clouds.10 mph60%29.85 "Hg10 mi
3:53 PM74 °FSunny.8 mph60%29.86 "Hg10 mi
2:53 PM72 °FSunny.9 mph64%29.88 "Hg10 mi
1:53 PM72 °FSunny.7 mph64%29.90 "Hg10 mi
12:53 PM67 °FOvercast.3 mph79%29.92 "Hg10 mi
11:53 AM64 °FLow clouds.5 mph87%29.93 "Hg10 mi
10:53 AM63 °FLow clouds.5 mph90%29.93 "Hg9 mi
5:53 AM60 °FFog.No wind96%29.86 "Hg4 mi
4:53 AM60 °FFog.No wind96%29.85 "Hg4 mi
3:53 AM59 °FFog.No wind96%29.85 "Hg6 mi
2:53 AM60 °FLow clouds.No wind93%29.85 "Hg10 mi
1:53 AM60 °FLow clouds.3 mph96%29.86 "Hg7 mi
12:53 AM61 °FLow clouds.3 mph93%29.86 "Hg10 mi
12:02 AM61 °FLow clouds.5 mph94%29.88 "Hg10 mi
11:53 PM
Sep 19
61 °FLow clouds.No wind93%29.85 "Hg10 mi
10:53 PM62 °FLow clouds.3 mph93%29.86 "Hg10 mi
Weather by CustomWeather, © 2014

See weather overviewHow to use our weather pages